New Roads False River Regiona, LA

1:58 AM CDT on September 15, 2019 (GMT -0500)
False River

Weather History for KHZR - May, 2019

Change the Weather History Date:

Thursday, May 30, 2019

  Actual Average (WUND) Record (WUND)
Temperature  
Mean Temperature 75 °F -  
Max Temperature 84 °F - - (-1)
Min Temperature 66 °F - - (-1)
Cooling Degree Days 10    
Growing Degree Days 25 (Base 50)    
Moisture  
Dew Point 71 °F    
Average Humidity 83    
Maximum Humidity 100    
Minimum Humidity 66    
Precipitation  
Precipitation 0.16 in - - ()
Sea Level Pressure  
Sea Level Pressure 29.92 in    
Wind  
Wind Speed 3 mph ()    
Max Wind Speed 9 mph    
Max Gust Speed -    
Visibility 8.3 miles    
Events Rain    
Averages and records for this station are not official NWS values.
T = Trace of Precipitation, MM = Missing Value Source: Averaged Metar Reports

Daily Weather History Graph

Daily Weather History Graph

Search for Another Location

Airport or City:

Astronomy

May. 30, 2019 Rise Set
Actual Time 6:04 AM CDT 8:02 PM CDT
Civil Twilight 5:37 AM CDT 8:30 PM CDT
Nautical Twilight 5:04 AM CDT 9:03 PM CDT
Astronomical Twilight 4:28 AM CDT 9:38 PM CDT
Moon 3:48 AM CDT (5/30) 4:29 PM CDT (5/30)
Length of Visible Light 14h 53m
Length of Day
13h 58m
Waning Crescent, 15% of the Moon is Illuminated
May 30
Waning Crescent
Jun 3
New
Jun 10
First Quarter
Jun 17
Full
Jun 25
Last Quarter

Hourly Weather History & Observations

Time (CDT) Temp. Heat Index Dew Point Humidity Pressure Visibility Wind Dir Wind Speed Gust Speed Precip Events Conditions
12:15 AM 73.4 °F - 68.0 °F 83% 29.87 in - SSE 5.8 mph - N/A   Clear
12:35 AM 73.4 °F - 69.8 °F 88% 29.87 in - South 5.8 mph - N/A   Clear
1:14 AM 73.4 °F - 69.8 °F 88% 29.89 in - Calm Calm - N/A   Clear
1:35 AM 73.4 °F - 69.8 °F 88% 29.89 in - Calm Calm - N/A   Unknown
1:54 AM 73.4 °F - 69.8 °F 88% 29.89 in - Calm Calm - N/A   Unknown
2:14 AM 69.8 °F - 68.0 °F 94% 29.90 in - NNE 3.5 mph - N/A   Unknown
3:14 AM 69.8 °F - 68.0 °F 94% 29.91 in - Calm Calm - N/A   Unknown
3:36 AM 69.8 °F - 68.0 °F 94% 29.92 in - ENE 3.5 mph - N/A   Unknown
3:54 AM 69.8 °F - 68.0 °F 94% 29.92 in - ENE 3.5 mph - N/A   Unknown
4:15 AM 69.8 °F - 69.8 °F 100% 29.92 in - Calm Calm - N/A   Unknown
4:54 AM 69.8 °F - 69.8 °F 100% 29.92 in - Calm Calm - N/A   Unknown
5:14 AM 69.8 °F - 68.0 °F 94% 29.91 in - Calm Calm - N/A   Unknown
5:54 AM 66.2 °F - 66.2 °F 100% 29.92 in - Calm Calm - N/A   Unknown
6:15 AM 66.2 °F - 66.2 °F 100% 29.92 in - Calm Calm - N/A   Unknown
6:36 AM 68.0 °F - 66.2 °F 94% 29.92 in - Calm Calm - N/A   Unknown
6:54 AM 69.8 °F - 69.8 °F 100% 29.93 in - Calm Calm - N/A   Unknown
7:16 AM 71.6 °F - 69.8 °F 94% 29.94 in - Calm Calm - N/A   Unknown
7:34 AM 73.4 °F - 71.6 °F 94% 29.93 in - SE 4.6 mph - N/A   Unknown
7:54 AM 73.4 °F - 71.6 °F 94% 29.94 in - South 5.8 mph - N/A   Unknown
8:14 AM 75.2 °F - 71.6 °F 89% 29.94 in - South 4.6 mph - N/A   Unknown
8:35 AM 78.8 °F - 71.6 °F 78% 29.94 in - South 6.9 mph - N/A   Clear
8:54 AM 78.8 °F - 71.6 °F 78% 29.93 in - South 9.2 mph - N/A   Clear
9:16 AM 80.6 °F 84.6 °F 71.6 °F 74% 29.92 in - South 9.2 mph - N/A   Clear
10:55 AM 82.4 °F 87.2 °F 71.6 °F 70% 29.94 in - South 8.1 mph - N/A   Clear
11:34 AM 82.4 °F 87.2 °F 71.6 °F 70% 29.95 in - South 6.9 mph - N/A   Mostly Cloudy
11:56 AM 82.4 °F 87.2 °F 71.6 °F 70% 29.96 in - SSW 5.8 mph - N/A   Scattered Clouds
12:14 PM 82.4 °F 87.2 °F 71.6 °F 70% 29.96 in - SW 5.8 mph - N/A   Mostly Cloudy
12:34 PM 84.2 °F 89.6 °F 71.6 °F 66% 29.97 in - SW 6.9 mph - N/A   Scattered Clouds
12:54 PM 82.4 °F 87.2 °F 71.6 °F 70% 29.96 in - SW 6.9 mph - N/A   Mostly Cloudy
1:54 PM 82.4 °F 87.2 °F 71.6 °F 70% 29.95 in 7.0 mi Calm Calm - N/A   Overcast
2:16 PM 82.4 °F 88.2 °F 73.4 °F 74% 29.93 in 10.0 mi South 5.8 mph - N/A   Mostly Cloudy
2:35 PM 84.2 °F 90.9 °F 73.4 °F 70% 29.93 in 10.0 mi SSW 6.9 mph - N/A   Clear
2:56 PM 84.2 °F 89.6 °F 71.6 °F 66% 29.93 in 10.0 mi SW 5.8 mph - N/A   Clear
3:14 PM 84.2 °F 89.6 °F 71.6 °F 66% 29.92 in 10.0 mi SW 4.6 mph - N/A   Scattered Clouds
4:15 PM 84.2 °F 90.9 °F 73.4 °F 70% 29.91 in 10.0 mi Calm Calm - N/A   Mostly Cloudy
4:55 PM 84.2 °F 90.9 °F 73.4 °F 70% 29.90 in 10.0 mi South 3.5 mph - N/A   Scattered Clouds
5:14 PM 84.2 °F 89.6 °F 71.6 °F 66% 29.90 in 10.0 mi SSW 3.5 mph - N/A   Clear
5:36 PM 84.2 °F 89.6 °F 71.6 °F 66% 29.89 in 10.0 mi Calm Calm - N/A   Scattered Clouds
6:35 PM 78.8 °F - 75.2 °F 89% 29.91 in 4.0 mi WSW 5.8 mph - 0.09 in Rain Heavy Rain
6:55 PM 78.8 °F - 71.6 °F 78% 29.90 in 10.0 mi SSE 5.8 mph - 0.16 in Rain Light Rain
7:15 PM - - - N/A% 29.90 in 10.0 mi Calm Calm - N/A   Overcast
8:16 PM - - - N/A% 29.91 in 10.0 mi Calm Calm - N/A   Scattered Clouds
8:34 PM - - - N/A% 29.92 in 10.0 mi Calm Calm - N/A   Clear
8:55 PM - - - N/A% 29.92 in 10.0 mi Calm Calm - N/A   Clear
9:34 PM - - - N/A% 29.93 in 10.0 mi Calm Calm - N/A   Clear
9:54 PM - - - N/A% 29.94 in 7.0 mi Calm Calm - N/A   Clear
10:16 PM - - - N/A% 29.94 in 7.0 mi Calm Calm - N/A   Clear
10:34 PM - - - N/A% 29.94 in 7.0 mi Calm Calm - N/A   Clear
10:54 PM - - - N/A% 29.94 in 5.0 mi Calm Calm - N/A   Haze
11:15 PM - - - N/A% 29.94 in 5.0 mi Calm Calm - N/A   Haze
11:35 PM - - - N/A% 29.94 in 4.0 mi Calm Calm - N/A   Haze
11:55 PM - - - N/A% 29.94 in 5.0 mi Calm Calm - N/A   Haze